Location: Fort Wayne
(41.1310°N, 85.1290°W)
Time: 22:10:23
(UTC-05:00)

Daily predictions for brighter satellites

Satellite Brightness Start Highest point End
(mag) Time Altitude Azimuth Time Altitude Azimuth Time Altitude Azimuth
Cosmos 1725 Rocket 4.2 18:35:58 10° N 18:42:19 86° W 18:48:34 10° S
Landsat 4 4.1 18:42:24 10° NNE 18:45:57 40° E 18:49:29 10° S
Okean 1-7 4.1 18:44:14 10° NNW 18:48:32 53° W 18:52:49 10° S
Cosmos 1674 Rocket 4.2 18:46:56 10° NNE 18:50:52 32° ENE 18:54:44 10° SE
MONITOR-E 4.0 18:49:05 10° SSE 18:52:04 68° ENE 18:55:05 10° N
ALOS 2.3 18:47:37 10° SSE 18:52:16 83° ENE 18:56:58 10° N
Iridium 4 Rocket 4.4 18:51:22 10° NNE 18:55:12 22° ENE 18:58:47 10° SE
Lacrosse 5 2.0 18:52:11 10° NW 18:57:16 83° SW 19:02:19 10° SE
ATLAS 3B R/B 3.6 18:50:14 10° SW 18:57:18 54° NW 19:04:07 10° NNE
MOS 1 4.3 18:52:37 10° SSE 18:58:15 79° ENE 19:03:57 10° NNW
Cosmos 2219 Rocket 3.2 18:53:01 10° NNW 18:58:31 52° WSW 19:03:57 10° S
NOSS 3-2 (A) 3.6 18:52:42 10° SW 18:58:36 77° NW 19:05:10 10° NNE
Cosmos 405 3.3 18:55:23 10° SSE 18:58:43 44° E 19:02:04 10° NNE
Cosmos 44 4.0 18:54:13 10° NNW 18:58:49 36° NE 19:03:38 10° ESE
YAOGAN 1 3.3 18:55:13 10° S 18:59:28 59° WSW 19:03:46 10° NNW
NOAA 12 4.1 18:55:14 10° SSE 19:00:31 79° ENE 19:05:51 10° N
NOSS 0 Rocket 4.3 18:56:42 10° NNW 19:02:52 71° WSW 19:09:02 10° SSE
Cosmos 1624 Rocket 4.3 18:59:23 10° NNW 19:04:36 73° WSW 19:09:45 10° S
SJ-6B 4.0 19:02:12 10° ESE 19:05:01 20° ENE 19:07:52 10° NNE
Cosmos 1733 Rocket 2.9 19:01:24 10° S 19:05:41 70° E 19:09:59 10° NNE
BREEZE-M R/B 3.9 19:03:42 10° NW 19:05:49 32° NNE 19:09:43 12° E
SL-8 R/B 3.9 19:01:41 10° SW 19:06:20 54° SE 19:10:36 12° ENE
Okean 3 3.9 19:03:17 10° N 19:07:12 38° ENE 19:11:05 10° SSE
CZ-4 R/B 3.8 19:06:16 10° SSW 19:09:49 29° W 19:13:20 10° NW
Cosmos 2227 Rocket 2.3 19:05:50 10° SSW 19:11:29 85° WNW 19:17:11 10° NNE
Cosmos 2237 Rocket 2.3 19:07:06 10° NNW 19:12:45 80° WSW 19:18:21 10° SSE
SKYMED 2 4.4 19:09:22 10° N 19:13:36 53° WNW 19:17:49 10° SSW
MOS 1-B Rocket 4.3 19:09:13 10° S 19:15:44 74° WSW 19:21:33 10° NNW
SL-16 R/B 2.5 19:10:25 10° NNW 19:15:52 45° ENE 19:21:16 10° SE
Meteor 1-14 Rocket 4.4 19:10:29 10° S 19:16:04 54° E 19:21:48 10° NNE
FENGYUN 3A 4.2 19:11:23 10° S 19:16:43 64° WSW 19:22:07 10° NNW
Okean 1 4.4 19:14:39 10° NNE 19:17:57 24° ENE 19:21:12 10° SE
Resurs 01 Rocket 3.2 19:19:14 16° ENE 19:19:41 16° ENE 19:22:21 10° NNE
H-2A R/B 2.7 19:17:33 10° SSE 19:21:27 75° ENE 19:25:22 10° N
Cosmos 1975 Rocket 4.2 19:21:28 10° NNE 19:25:01 23° ENE 19:26:50 18° ESE
Cosmos 2297 Rocket 2.4 19:19:58 10° SSW 19:25:37 76° WNW 19:31:19 10° NNE
Meteor 1-20 Rocket 4.3 19:23:33 10° S 19:29:05 58° E 19:34:46 10° NNE
DNEPR-1 R/B 4.4 19:27:33 10° SW 19:31:37 47° NW 19:35:50 10° NNE
CZ-3 Stage 3 3.9 19:28:27 10° WSW 19:31:54 18° SSW 19:34:04 10° SSE
Thor Agena Rocket 3.9 19:27:54 10° NNE 19:32:41 40° E 19:37:24 10° SSE
USA 186 4.1 19:38:13 12° NNE 19:38:13 12° NNE 19:38:40 10° NNE
CZ-2D R/B 3.7 19:32:56 10° SE 19:36:34 39° ENE 19:40:13 10° N
Envisat 3.4 19:31:57 10° SE 19:36:40 40° ENE 19:41:24 10° N
Tsikada Rocket 4.5 19:31:26 10° SSE 19:37:14 38° E 19:43:04 10° NNE
OAO 2 Rocket 4.4 19:33:26 10° SW 19:37:41 29° SSE 19:39:55 21° ESE
ARGOS Delta rocket 4.2 19:34:55 10° NNE 19:39:31 40° E 19:43:51 10° SSE
USA 32 4.1 19:34:39 10° SSE 19:39:43 52° E 19:44:47 10° NNE
SeaSat 1 2.6 19:35:40 14° SE 19:39:46 49° ENE 19:44:32 10° NNW
Meteor 1-18 Rocket 4.1 19:34:39 10° N 19:40:16 69° E 19:45:46 10° SSE
Cosmos 1812 3.0 19:36:27 10° NNW 19:40:18 69° W 19:44:09 10° S
USA 215 3.2 19:34:23 12° NE 19:40:33 68° SE 19:47:03 10° SW
ERS-2 2.1 19:37:52 10° SSE 19:41:33 83° WSW 19:45:16 10° NNW
Cosmos 1269 Rocket 4.4 19:37:29 10° S 19:42:23 40° ESE 19:47:18 10° NE
Cosmos 1633 2.5 19:42:20 10° S 19:45:52 81° W 19:49:27 10° N
HJ-1C 3.3 19:43:37 10° SSE 19:47:01 77° ENE 19:50:27 10° N
Cosmos 1378 Rocket 3.5 19:45:41 10° N 19:50:07 86° E 19:54:33 10° S
NOSS 3-2 (C) 4.3 19:45:40 10° WSW 19:51:26 48° NW 19:57:50 10° NNE
CZ-3C R/B 4.2 19:49:09 10° SSE 19:51:28 12° SE 19:52:23 11° SE
Sich 1 Rocket 3.5 19:47:48 10° S 19:52:18 72° E 19:56:46 10° NNE
Meteor 1-25 Rocket 4.3 19:48:33 10° SSW 19:54:04 80° W 19:59:40 10° N
Cosmos 1464 Rocket 3.9 19:49:01 10° N 19:55:10 86° W 20:01:18 10° S
Cosmos 1782 Rocket 3.5 19:51:15 10° S 19:55:36 58° E 19:59:58 10° NNE
Meteor 1-19 Rocket 4.4 19:51:55 10° N 19:57:12 44° ENE 19:59:39 28° SE
Tiangong 2 2.0 19:58:20 10° W 20:01:21 40° SSW 20:01:40 39° S
Cosmos 1437 Rocket 2.7 19:58:25 10° S 20:02:24 67° E 20:06:29 10° NNE
FREGAT/IRIS 4.4 20:00:40 10° SSW 20:03:23 33° W 20:06:07 10° NNW
Gbstr 26 Del rocket 4.5 20:00:46 10° S 20:02:15 19° S 20:02:15 19° S
Meteor 2-4 Rocket 4.2 19:59:14 10° N 20:04:36 37° ENE 20:04:43 37° ENE
Cosmos 44 Rocket 3.3 19:59:53 10° NNW 20:04:57 86° WSW 20:07:57 25° SSE
Cosmos 1939 Rocket 4.1 20:07:20 28° NNE 20:07:20 28° NNE 20:09:38 10° N
Cosmos 2227 4.3 20:06:26 10° S 20:11:58 52° ESE 20:13:31 40° ENE
USA 267 3.8 20:11:39 34° ENE 20:13:39 42° NNE 20:19:42 10° NW
CENTAUR R/B 2.7 20:13:57 10° SW 20:19:56 70° NW 20:26:24 12° NNE
ATLAS CENTAUR R/B 3.9 20:17:47 10° N 20:17:56 10° N 20:17:56 10° N
Spot 2 Rocket 3.5 20:27:14 58° NE 20:27:14 58° NE 20:31:44 10° N
Cosmos 2034 Rocket 4.4 20:23:33 10° NNW 20:29:52 64° W 20:36:07 10° S
Geosat 3.9 20:28:15 43° NNE 20:29:58 89° ESE 20:35:00 10° SSW
Cosmos 1943 4.2 20:37:37 10° NNW 20:41:13 34° NNE 20:41:13 34° NNE
Cosmos 1634 Rocket 3.9 20:38:07 10° N 20:43:38 63° NE 20:43:38 63° NE
Cosmos 2346 Rocket 4.4 20:38:07 10° S 20:44:20 85° W 20:50:33 10° N
Cosmos 921 Rocket 4.2 20:41:41 10° NNW 20:45:58 43° W 20:46:59 36° SW
Resurs 1-3 4.4 20:47:28 48° NW 20:47:28 48° NW 20:50:49 10° NNW
SL-8 R/B 4.5 20:44:21 10° W 20:48:35 46° NNW 20:48:35 46° NNW
CZ-4C R/B 3.5 20:43:44 10° NNW 20:49:51 40° NE 20:49:51 40° NE
Resurs 01 Rocket 2.8 20:56:47 41° WNW 20:56:47 41° WNW 21:00:03 10° NNW
Meteor 1-13 Rocket 4.4 20:51:07 10° NNW 20:56:36 66° W 20:57:02 64° WSW
SL-16 R/B 4.2 20:55:08 10° NW 20:59:40 25° WSW 21:04:11 10° SSW
USA 215 4.2 21:21:44 36° N 21:23:19 42° NNW 21:29:22 10° W
USA 267 4.3 21:58:59 39° WNW 21:58:59 39° WNW 22:02:57 10° NW
